Location: Newark
(44.6768°N, 22.5302°E)
Time: 21:37:05
(UTC+00:00)

AO-92 - Pass Details

Date: 07 July 2022
Orbit: 469 x 481 km, 97.4° (Epoch: 13 August)

Event Time Altitude Azimuth Distance (km) Brightness Sun altitude
Exits shadow 21:45:22 11° 257° (WSW) 1,607 ? -21.9°
Maximum altitude 21:46:08 11° 270° (W) 1,575 ? -21.9°
Drops below altitude 10° 21:47:20 10° 290° (WNW) 1,664 ? -21.9°
Sets 21:50:45 0° 325° (NW) 2,555 ? -22.1°
